Regional Weather Roundup
Issued by NWS

Home | Current Version | Previous Version | Graphics & Text | Print | Product List | Glossary On
Versions: 1 2 3 4 5 6 7 8 9 10 11 12 13 14 15 16 17 18 19 20 21 22 23 24 25 26 27 28 29 30 31 32 33 34 35 36 37 38 39 40 41 42 43 44 45 46 47 48 49 50
577
ASUS43 KLSX 252210
RWRMO

WEATHER SUMMARY FOR MISSOURI
NATIONAL WEATHER SERVICE SPRINGFIELD MO
500 PM CDT TUE JUL 25 2017

NOTE: "FAIR" INDICATES FEW OR NO CLOUDS BELOW 12,000 FEET WITH NO
       SIGNIFICANT WEATHER AND/OR OBSTRUCTIONS TO VISIBILITY.
       CURRENT SKY AND/OR WEATHER CONDITIONS ARE NOT AVAILABLE FOR
       CHILLICOTHE AND FARMINGTON.

MOZ001>031-035>038-043-044-053-054-252300-
...NORTHERN AND WESTERN MISSOURI...

CITY           SKY/WX    TMP DP  RH WIND       PRES   REMARKS
KANSAS CTY INT MOSUNNY   94  72  48 S13       30.03F HX 102
KANSAS C DTWN  MOSUNNY   93  75  55 SE8       30.01F HX 104
LEE`S SUMMIT   MOSUNNY   91  75  59 SE8       30.04F HX 101
ST JOSEPH      SUNNY     93  74  53 S13       30.01F HX 103
CHILLICOTHE      N/A     89  76  65 S7        30.05F HX 100
KIRKSVILLE     SUNNY     90  70  51 SE9       30.08F HX  95

$$
MOZ066>068-077>081-088>096-101>105-252300-
...SOUTHWEST MISSOURI...

CITY           SKY/WX    TMP DP  RH WIND       PRES   REMARKS
SPRINGFIELD    SUNNY     97  69  40 W9        30.04F HX 103
JOPLIN         SUNNY     97  69  40 S8        30.04F HX 103
BRANSON        MOSUNNY   95  64  36 SW3       30.07F HX  97

$$
MOZ032>034-039>042-045>050-055>058-069>072-252300-
...CENTRAL MISSOURI...

CITY           SKY/WX    TMP DP  RH WIND       PRES   REMARKS
COLUMBIA       SUNNY     90  69  50 E6        30.07F HX  94
JEFFERSON CITY SUNNY     90  69  50 SE12      30.04F HX  94
ROLLA          SUNNY     93  67  42 E7        30.08F HX  96
SEDALIA        SUNNY     92  78  63 E9        30.07F HX 107
WHITEMAN AFB   SUNNY     92  77  60 E7        30.04F HX 105
WARRENSBURG    SUNNY     91  73  55 NE7       30.04F HX 100
OSAGE BEACH    SUNNY     96  69  41 NE9       30.04F HX 102

$$
MOZ051-052-059>065-252300-
...EAST CENTRAL MISSOURI...

CITY           SKY/WX    TMP DP  RH WIND       PRES   REMARKS
ST LOUIS INTL  MOSUNNY   92  70  48 E12       30.07F HX  97
SPIRIT OF STL  MOSUNNY   93  71  48 NE13      30.04F HX 100
ST CHARLES     MOSUNNY   89  71  55 E8        30.06F HX  95

$$
MOZ072>076-082>087-097>100-106>115-252300-
...SOUTH CENTRAL AND SOUTHEAST MISSOURI...

CITY           SKY/WX    TMP DP  RH WIND       PRES   REMARKS
CAPE GIRARDEAU CLOUDY    84  75  74 SE9       30.04F HX  92
FARMINGTON     MOSUNNY   91  72  53 E9        30.06F HX  98
POPLAR BLUFF   MOSUNNY   93  77  59 S10       30.02F HX 107
WEST PLAINS    MOSUNNY   93  67  42 S7        30.07F HX  96

$$




USA.gov is the U.S. government's official web portal to all federal, state and local government web resources and services.